FENGYUN 1C DEB, 40689

Orbit data source: Space-Track

FENGYUN 1C DEB, 40689 is space debris in SSO originally from a launch on Mon, 10 May 1999 UTC launched from the Taiyaun Space Center, China (TSC). Fengyun 1C debris stems from the Chinese weather satellite Fengyun-1C, which was intentionally destroyed by a Chinese anti-satellite missile in 2007. This event dramatically increased the amount of space debris, with thousands of trackable fragments posing hazards to satellites and human spaceflight. The Fengyun 1C debris cloud has become a focal point in discussions about space sustainability and the need for international regulations to prevent the creation of new debris.

Loading next visibility...
Identifier
40689, 1999-025EWV
Orbit
SSO
Country
Flag of CNCN / PRC
Related business
Manufacturer
Unknown
Mission
Spacecraft
Bus & Motor
Unknown
Mass
Unknown
Launch date (UTC)
1999-05-10 (27 years ago)
Launch vehicle
Unknown
Launch site
Taiyaun Space Center, China (TSC)
Object type
Payload
Rocket body
Debris
Shape & HBR
Unknown shape, 0.1 m
Radar Cross Section
Small (<0.1 m²)

Expand to show TLE details & history
Last TLE update: 3 days ago

TLE from 3 days ago
0 FENGYUN 1C DEB
1 40689U 99025EWV 26161.51679603  .00001151  00000-0  10525-2 0  9998
2 40689  99.1254  74.0740 0311202 354.7645   5.0271 13.65343735573363
Epoch: 2026-06-10T12:24Z
TLE epoch observation values (Epoch: 2026-06-10T12:24:11.176Z)
Latitude
-0.00005°
Longitude
-10.84638°
Altitude
789.947 km
Speed
7.573 km/s
True Right ascension
04h 56m 17s
True Declination
0° 00' 00"
Sunlit
Object was in daylight at epoch
Visualization orbit readout
Latitude
Unknown
Longitude
Unknown
Altitude
Unknown
Speed
Unknown
Apparent Right ascension
Unknown
Apparent Declination
Unknown
Sunlit
N/A
Visualization observer readout
Local Sidereal Time
09:17:23
Azimuth
Unknown
Elevation
Unknown
Doppler factor
Unknown
Orbital elements
Apogee altitude
1,243.615 km
Perigee altitude
783.551 km
Semi-major axis
7,391.72 km
Eccentricity
0.03112
Inclination
99.1254°
RAAN
74.074°
Arg. of periapsis
354.7645°
True anomaly
5.35216°
Mean anomaly
5.0271°
Eccentric anomaly
5.18834°
Mean motion
3.41527 °/min
Orbital period
105.41 mins
BSTAR
0.0010525
Loading maneuver chart data...
Computing Atmospheric mass density...
Loading historical data...
Loading historical data...
Loading historical data...
Loading historical data...
Loading historical data...
Loading historical data...
Loading historical data...

Documentation

Showing up to 5 results
|